This is the latest recevied weather packets stored in our database for station/object VK4GDW-13. If no packets are shown the sender has not sent any weather packets the latest 10 day(s).
| Time | Temp. | Humidity | Pressure | Rain* | Wind** | Luminosity | Snow |
|---|---|---|---|---|---|---|---|
| 1787964006 | 22.78° C | 45% | 1029.8 hPa | 0 mm | - | - | - |
| 1787963703 | 22.78° C | 45% | 1029.8 hPa | 0 mm | - | - | - |
| 1787963400 | 23.33° C | 45% | 1029.9 hPa | 0 mm | - | - | - |
| 1787963097 | 23.33° C | 44% | 1029.9 hPa | 0 mm | - | - | - |
| 1787962793 | 23.89° C | 44% | 1029.8 hPa | 0 mm | - | - | - |
| 1787962490 | 23.89° C | 43% | 1029.8 hPa | 0 mm | - | - | - |
| 1787962187 | 24.44° C | 43% | 1029.8 hPa | 0 mm | - | - | - |
| 1787961884 | 24.44° C | 43% | 1029.9 hPa | 0 mm | - | - | - |
| 1787961581 | 24.44° C | 43% | 1029.8 hPa | 0 mm | - | - | - |
| 1787961278 | 24.44° C | 44% | 1029.9 hPa | 0 mm | - | - | - |
| 1787960975 | 24.44° C | 45% | 1029.8 hPa | 0 mm | - | - | - |
| 1787960672 | 23.89° C | 46% | 1029.9 hPa | 0 mm | - | - | - |
| 1787960369 | 22.78° C | 48% | 1029.9 hPa | 0 mm | - | - | - |
| 1787960065 | 22.78° C | 49% | 1029.8 hPa | 0 mm | - | - | - |
| 1787959762 | 22.22° C | 49% | 1029.9 hPa | 0 mm | - | - | - |
| 1787959459 | 22.22° C | 49% | 1029.8 hPa | 0 mm | - | - | - |
| 1787959156 | 22.22° C | 49% | 1029.8 hPa | 0 mm | - | - | - |
| 1787958853 | 22.22° C | 49% | 1029.7 hPa | 0 mm | - | - | - |
| 1787958550 | 22.22° C | 50% | 1029.7 hPa | 0 mm | - | - | - |
| 1787958247 | 21.67° C | 52% | 1029.6 hPa | 0 mm | - | - | - |
| 1787957944 | 21.11° C | 53% | 1029.8 hPa | 0 mm | - | - | - |
| 1787957641 | 20.56° C | 54% | 1029.7 hPa | 0 mm | - | - | - |
| 1787957337 | 20° C | 55% | 1029.6 hPa | 0 mm | - | - | - |
| 1787957034 | 19.44° C | 55% | 1029.5 hPa | 0 mm | - | - | - |
| 1787956731 | 19.44° C | 56% | 1029.6 hPa | 0 mm | - | - | - |
* Rain since midnight (hover to see other rain measurements)
** Current wind speed in m/s (hover to see current wind gust speed)